When you browse on this site, cookies collect data to enhance your experience and personalize the content and advertising you see.
Visit our Privacy Policy to learn more. By continuing to use the site, you agree to this use of cookies and data.
  • In Österreich
  • Länderverzeichnis
  • Für 7 Tage
  • Wassertemperatur
  • Wetterkarte
  • News
  • Widgets
  • user-avatar
    Anmelden

    Stündliche Wetter Newcastle

    Heute, 14 Oktober, Montag

    Zeit Temperatur Niederschläge Wind Luftdruck Luftfeuchtigkeit
    00:00 +11°C° 0 mm 1 m/S 763 mmHg 87%
    01:00 +11°C° 0 mm 1 m/S 763 mmHg 88%
    02:00 +11°C° 0 mm 1 m/S 763 mmHg 89%
    03:00 +9°C° 0 mm 2 m/S 762 mmHg 90%
    04:00 +10°C° 0 mm 1 m/S 762 mmHg 93%
    05:00 +11°C° 0 mm 1 m/S 762 mmHg 86%
    06:00 +13°C° 0 mm 1 m/S 762 mmHg 80%
    07:00 +14°C° 0 mm 1 m/S 762 mmHg 73%
    08:00 +18°C° 0 mm 1 m/S 762 mmHg 65%
    09:00 +19°C° 0 mm 2 m/S 762 mmHg 57%
    10:00 +23°C° 0 mm 2 m/S 762 mmHg 48%
    11:00 +24°C° 0 mm 2 m/S 761 mmHg 45%
    12:00 +25°C° 0 mm 3 m/S 760 mmHg 43%
    13:00 +26°C° 0 mm 4 m/S 759 mmHg 40%
    14:00 +26°C° 0 mm 4 m/S 759 mmHg 44%
    15:00 +25°C° 0 mm 4 m/S 759 mmHg 49%
    16:00 +23°C° 0 mm 5 m/S 758 mmHg 53%
    17:00 +21°C° 0.1 mm 5 m/S 759 mmHg 65%
    18:00 +17°C° 0.1 mm 5 m/S 759 mmHg 77%
    19:00 +15°C° 0.1 mm 5 m/S 759 mmHg 89%
    20:00 +15°C° 0.4 mm 4 m/S 760 mmHg 91%
    21:00 +15°C° 0.4 mm 4 m/S 760 mmHg 92%
    22:00 +14°C° 0.4 mm 3 m/S 760 mmHg 94%
    23:00 +14°C° 0 mm 3 m/S 759 mmHg 94%

    Morgen, 15 Oktober, Dienstag

    Zeit Temperatur Niederschläge Wind Luftdruck Luftfeuchtigkeit
    00:00 +15°C° 0 mm 2 m/S 759 mmHg 95%
    01:00 +14°C° 0 mm 1 m/S 759 mmHg 95%
    02:00 +14°C° 0 mm 1 m/S 759 mmHg 95%
    03:00 +14°C° 0 mm 1 m/S 759 mmHg 95%
    04:00 +14°C° 0 mm 1 m/S 758 mmHg 96%
    05:00 +15°C° 0 mm 1 m/S 759 mmHg 94%
    06:00 +15°C° 0 mm 1 m/S 759 mmHg 92%
    07:00 +16°C° 0 mm 1 m/S 759 mmHg 90%
    08:00 +20°C° 0 mm 1 m/S 759 mmHg 79%
    09:00 +23°C° 0 mm 1 m/S 759 mmHg 67%
    10:00 +26°C° 0 mm 1 m/S 759 mmHg 55%
    11:00 +26°C° 0 mm 2 m/S 758 mmHg 55%
    12:00 +27°C° 0 mm 3 m/S 758 mmHg 54%
    13:00 +27°C° 0 mm 4 m/S 757 mmHg 54%
    14:00 +27°C° 0 mm 5 m/S 757 mmHg 57%
    15:00 +27°C° 0 mm 5 m/S 757 mmHg 61%
    16:00 +26°C° 0 mm 6 m/S 757 mmHg 64%
    17:00 +23°C° 0 mm 6 m/S 757 mmHg 73%
    18:00 +21°C° 0 mm 6 m/S 758 mmHg 81%
    19:00 +20°C° 0 mm 6 m/S 758 mmHg 90%
    20:00 +19°C° 0 mm 5 m/S 758 mmHg 92%
    21:00 +18°C° 0 mm 4 m/S 758 mmHg 94%
    22:00 +17°C° 0 mm 4 m/S 759 mmHg 97%
    23:00 +17°C° 0 mm 3 m/S 758 mmHg 97%

    übermorgen, 16 Oktober, Mittwoch

    Zeit Temperatur Niederschläge Wind Luftdruck Luftfeuchtigkeit
    00:00 +17°C° 0 mm 3 m/S 758 mmHg 97%
    01:00 +16°C° 0 mm 2 m/S 758 mmHg 97%
    02:00 +16°C° 0 mm 2 m/S 758 mmHg 96%
    03:00 +16°C° 0 mm 2 m/S 757 mmHg 96%
    04:00 +16°C° 0 mm 2 m/S 757 mmHg 96%
    05:00 +17°C° 0 mm 2 m/S 757 mmHg 91%
    06:00 +19°C° 0 mm 1 m/S 758 mmHg 86%
    07:00 +20°C° 0 mm 1 m/S 758 mmHg 81%
    08:00 +23°C° 0 mm 1 m/S 757 mmHg 69%
    09:00 +26°C° 0 mm 1 m/S 757 mmHg 57%
    10:00 +29°C° 0 mm 1 m/S 757 mmHg 45%
    11:00 +30°C° 0 mm 2 m/S 756 mmHg 42%
    12:00 +33°C° 0 mm 3 m/S 755 mmHg 38%
    13:00 +34°C° 0 mm 4 m/S 754 mmHg 35%
    14:00 +34°C° 0 mm 4 m/S 754 mmHg 36%
    15:00 +34°C° 0 mm 4 m/S 753 mmHg 38%
    16:00 +34°C° 0 mm 5 m/S 753 mmHg 40%
    17:00 +28°C° 1.5 mm 4 m/S 754 mmHg 58%
    18:00 +23°C° 1.5 mm 4 m/S 755 mmHg 77%
    19:00 +19°C° 1.5 mm 3 m/S 756 mmHg 96%
    20:00 +19°C° 0.4 mm 3 m/S 756 mmHg 97%
    21:00 +18°C° 0.4 mm 3 m/S 756 mmHg 97%
    22:00 +18°C° 0.4 mm 3 m/S 755 mmHg 98%
    23:00 +18°C° 0.1 mm 3 m/S 755 mmHg 98%

    17 Oktober, Donnerstag

    Zeit Temperatur Niederschläge Wind Luftdruck Luftfeuchtigkeit
    00:00 +18°C° 0.1 mm 2 m/S 754 mmHg 98%
    01:00 +18°C° 0.1 mm 2 m/S 753 mmHg 98%
    02:00 +18°C° 0 mm 2 m/S 753 mmHg 98%
    03:00 +18°C° 0 mm 2 m/S 753 mmHg 98%
    04:00 +18°C° 0 mm 2 m/S 753 mmHg 98%
    05:00 +18°C° 0.1 mm 3 m/S 753 mmHg 96%
    06:00 +19°C° 0.1 mm 3 m/S 754 mmHg 95%
    07:00 +19°C° 0.1 mm 3 m/S 754 mmHg 93%
    08:00 +22°C° 0 mm 3 m/S 754 mmHg 80%
    09:00 +25°C° 0 mm 3 m/S 754 mmHg 67%
    10:00 +27°C° 0 mm 3 m/S 754 mmHg 54%
    11:00 +28°C° 0 mm 4 m/S 754 mmHg 45%
    12:00 +29°C° 0 mm 4 m/S 755 mmHg 35%
    13:00 +30°C° 0 mm 5 m/S 755 mmHg 25%
    14:00 +28°C° 0 mm 5 m/S 755 mmHg 28%
    15:00 +27°C° 0 mm 4 m/S 756 mmHg 30%
    16:00 +26°C° 0 mm 4 m/S 756 mmHg 33%
    17:00 +23°C° 0 mm 5 m/S 757 mmHg 32%
    18:00 +21°C° 0 mm 5 m/S 759 mmHg 31%
    19:00 +19°C° 0 mm 5 m/S 760 mmHg 31%
    20:00 +16°C° 0 mm 5 m/S 761 mmHg 34%
    21:00 +15°C° 0 mm 5 m/S 761 mmHg 36%
    22:00 +14°C° 0 mm 5 m/S 762 mmHg 39%
    23:00 +13°C° 0 mm 4 m/S 762 mmHg 43%

    18 Oktober, Freitag

    Zeit Temperatur Niederschläge Wind Luftdruck Luftfeuchtigkeit
    00:00 +12°C° 0 mm 3 m/S 762 mmHg 46%
    01:00 +11°C° 0 mm 3 m/S 763 mmHg 50%
    02:00 +10°C° 0 mm 2 m/S 763 mmHg 52%
    03:00 +9°C° 0 mm 2 m/S 763 mmHg 55%
    04:00 +9°C° 0 mm 2 m/S 763 mmHg 57%
    05:00 +10°C° 0 mm 2 m/S 763 mmHg 54%
    06:00 +12°C° 0 mm 2 m/S 763 mmHg 51%
    07:00 +13°C° 0 mm 3 m/S 764 mmHg 48%
    08:00 +16°C° 0 mm 3 m/S 763 mmHg 42%
    09:00 +18°C° 0 mm 3 m/S 763 mmHg 37%
    10:00 +21°C° 0 mm 3 m/S 763 mmHg 31%
    11:00 +22°C° 0 mm 3 m/S 762 mmHg 29%
    12:00 +25°C° 0 mm 4 m/S 761 mmHg 26%
    13:00 +26°C° 0 mm 4 m/S 761 mmHg 24%
    14:00 +26°C° 0 mm 5 m/S 760 mmHg 25%
    15:00 +27°C° 0 mm 6 m/S 760 mmHg 26%
    16:00 +27°C° 0 mm 6 m/S 759 mmHg 27%
    17:00 +23°C° 0 mm 5 m/S 760 mmHg 34%
    18:00 +21°C° 0 mm 5 m/S 760 mmHg 40%
    19:00 +18°C° 0 mm 4 m/S 760 mmHg 46%
    20:00 +17°C° 0 mm 4 m/S 761 mmHg 50%
    21:00 +16°C° 0 mm 3 m/S 761 mmHg 54%
    22:00 +13°C° 0 mm 3 m/S 761 mmHg 58%
    23:00 +13°C° 0 mm 3 m/S 761 mmHg 55%

    19 Oktober, Samstag

    Zeit Temperatur Niederschläge Wind Luftdruck Luftfeuchtigkeit
    00:00 +13°C° 0 mm 3 m/S 760 mmHg 53%
    01:00 +12°C° 0 mm 3 m/S 760 mmHg 50%
    02:00 +12°C° 0 mm 3 m/S 760 mmHg 49%
    03:00 +12°C° 0 mm 4 m/S 760 mmHg 48%
    04:00 +11°C° 0 mm 4 m/S 760 mmHg 47%
    05:00 +13°C° 0 mm 4 m/S 760 mmHg 44%
    06:00 +14°C° 0 mm 4 m/S 761 mmHg 41%
    07:00 +17°C° 0 mm 4 m/S 761 mmHg 38%
    08:00 +19°C° 0 mm 4 m/S 761 mmHg 34%
    09:00 +22°C° 0 mm 4 m/S 761 mmHg 31%
    10:00 +25°C° 0 mm 4 m/S 761 mmHg 28%
    11:00 +27°C° 0 mm 4 m/S 760 mmHg 26%
    12:00 +28°C° 0 mm 4 m/S 760 mmHg 24%
    13:00 +29°C° 0 mm 5 m/S 759 mmHg 23%
    14:00 +29°C° 0 mm 5 m/S 759 mmHg 24%
    15:00 +29°C° 0 mm 4 m/S 759 mmHg 25%
    16:00 +29°C° 0 mm 4 m/S 758 mmHg 26%
    17:00 +26°C° 0 mm 4 m/S 759 mmHg 33%
    18:00 +22°C° 0 mm 4 m/S 760 mmHg 40%
    19:00 +19°C° 0 mm 3 m/S 761 mmHg 47%
    20:00 +18°C° 0 mm 3 m/S 762 mmHg 48%
    21:00 +17°C° 0 mm 4 m/S 762 mmHg 49%
    22:00 +15°C° 0 mm 4 m/S 763 mmHg 50%
    23:00 +14°C° 0 mm 4 m/S 763 mmHg 52%
    Mehr zeigen